"Sample Date","Sample Time","Sample Value","Units","Flow Rate","Sample Interval","Number Channels","Micron Size 0","Counts/Channel 0","Micron Size 1","Counts/Channel 1","Micron Size 2","Counts/Channel 2","Micron Size 3","Counts/Channel 3","Micron Size 4","Counts/Channel 4","Micron Size 5","Counts/Channel 5","Micron Size 6","Counts/Channel 6","Micron Size 7","Counts/Channel 7","Micron Size 8","Counts/Channel 8","Micron Size 9","Counts/Channel 9","Micron Size 10","Counts/Channel 10","Micron Size 11","Counts/Channel 11","Micron Size 12","Counts/Channel 12","Micron Size 13","Counts/Channel 13","Micron Size 14","Counts/Channel 14","Micron Size 15","Counts/Channel 15","Micron Size 16","Counts/Channel 16","Micron Size 17","Counts/Channel 17","Micron Size 18","Counts/Channel 18","Micron Size 19","Counts/Channel 19","Micron Size 20","Counts/Channel 20","Micron Size 21","Counts/Channel 21","Micron Size 22","Counts/Channel 22","Micron Size 23","Counts/Channel 23","Micron Size 24","Counts/Channel 24","Micron Size 25","Counts/Channel 25","Micron Size 26","Counts/Channel 26","Micron Size 27","Counts/Channel 27","Micron Size 28","Counts/Channel 28","Micron Size 29","Counts/Channel 29","Micron Size 30","Counts/Channel 30","Micron Size 31","Counts/Channel 31"
"04/01/08","10:00:00",8852.000,"cc",28344.148,6.00,6,0.100,5686.000,0.200,1209.000,0.300,832.000,0.500,813.000,1.000,312.000,5.000,0
"04/01/08","10:00:06",11547.000,"cc",28329.205,6.00,6,0.100,7766.000,0.200,1632.000,0.300,895.000,0.500,938.000,1.000,316.000,5.000,0
"04/01/08","10:00:12",7533.000,"cc",28318.227,6.00,6,0.100,4663.000,0.200,1111.000,0.300,701.000,0.500,757.000,1.000,301.000,5.000,0
"04/01/08","10:00:18",12882.000,"cc",28335.690,6.00,6,0.100,9134.000,0.200,1648.000,0.300,871.000,0.500,902.000,1.000,327.000,5.000,0
"04/01/08","10:00:24",16604.000,"cc",28316.363,6.00,6,0.100,12324.000,0.200,2074.000,0.300,930.000,0.500,936.000,1.000,340.000,5.000,0
"04/01/08","10:00:30",23337.000,"cc",28277.615,6.00,6,0.100,17764.000,0.200,2888.000,0.300,1154.000,0.500,1139.000,1.000,392.000,5.000,0
"04/01/08","10:00:36",23946.000,"cc",28264.617,6.00,6,0.100,18016.000,0.200,3021.000,0.300,1270.000,0.500,1228.000,1.000,411.000,5.000,0
"04/01/08","10:00:42",12260.000,"cc",28350.834,6.00,6,0.100,8149.000,0.200,1724.000,0.300,1003.000,0.500,1034.000,1.000,350.000,5.000,0
"04/01/08","10:00:48",14716.000,"cc",28277.910,6.00,6,0.100,10621.000,0.200,1858.000,0.300,933.000,0.500,968.000,1.000,336.000,5.000,0
"04/01/08","10:00:54",16591.000,"cc",28301.041,6.00,6,0.100,12195.000,0.200,2019.000,0.300,994.000,0.500,988.000,1.000,395.000,5.000,0
"04/01/08","10:01:00",18642.000,"cc",28323.902,6.00,6,0.100,13256.000,0.200,2519.000,0.300,1271.000,0.500,1172.000,1.000,424.000,5.000,0
"04/01/08","10:01:06",14548.000,"cc",28380.154,6.00,6,0.100,9673.000,0.200,1984.000,0.300,1240.000,0.500,1174.000,1.000,477.000,5.000,0
"04/01/08","10:01:12",9611.000,"cc",28278.133,6.00,6,0.100,5931.000,0.200,1358.000,0.300,945.000,0.500,991.000,1.000,386.000,5.000,0
"04/01/08","10:01:18",12313.000,"cc",28302.182,6.00,6,0.100,8207.000,0.200,1617.000,0.300,1025.000,0.500,1068.000,1.000,396.000,5.000,0
"04/01/08","10:01:24",17895.000,"cc",28324.125,6.00,6,0.100,12399.000,0.200,2458.000,0.300,1347.000,0.500,1252.000,1.000,439.000,5.000,0
"04/01/08","10:01:30",11609.000,"cc",28324.393,6.00,6,0.100,7640.000,0.200,1658.000,0.300,1027.000,0.500,956.000,1.000,328.000,5.000,0
"04/01/08","10:01:36",9436.000,"cc",28302.074,6.00,6,0.100,6073.000,0.200,1289.000,0.300,880.000,0.500,881.000,1.000,313.000,5.000,0
"04/01/08","10:01:42",8454.000,"cc",28332.957,6.00,6,0.100,5325.000,0.200,1186.000,0.300,788.000,0.500,857.000,1.000,298.000,5.000,0
"04/01/08","10:01:48",13085.000,"cc",28341.209,6.00,6,0.100,8615.000,0.200,1846.000,0.300,1123.000,0.500,1103.000,1.000,398.000,5.000,0
"04/01/08","10:01:54",21222.000,"cc",28276.553,6.00,6,0.100,14106.000,0.200,3193.000,0.300,1727.000,0.500,1635.000,1.000,561.000,5.000,0
"04/01/08","10:02:00",17412.000,"cc",28333.014,6.00,6,0.100,11440.000,0.200,2591.000,0.300,1488.000,0.500,1426.000,1.000,467.000,5.000,0
"04/01/08","10:02:06",14913.000,"cc",28334.838,6.00,6,0.100,10080.000,0.200,2091.000,0.300,1182.000,0.500,1177.000,1.000,383.000,5.000,0
"04/01/08","10:02:12",26013.000,"cc",28307.680,6.00,6,0.100,19008.000,0.200,3384.000,0.300,1671.000,0.500,1452.000,1.000,498.000,5.000,0
"04/01/08","10:02:18",10483.000,"cc",28282.510,6.00,6,0.100,7060.000,0.200,1387.000,0.300,831.000,0.500,876.000,1.000,329.000,5.000,0
"04/01/08","10:02:24",20905.000,"cc",28381.111,6.00,6,0.100,15917.000,0.200,2466.000,0.300,1143.000,0.500,1018.000,1.000,361.000,5.000,0
"04/01/08","10:02:30",13225.000,"cc",28366.031,6.00,6,0.100,9349.000,0.200,1636.000,0.300,948.000,0.500,938.000,1.000,354.000,5.000,0
"04/01/08","10:02:36",12662.000,"cc",28292.869,6.00,6,0.100,8785.000,0.200,1682.000,0.300,919.000,0.500,939.000,1.000,337.000,5.000,0
"04/01/08","10:02:42",23725.000,"cc",28381.627,6.00,6,0.100,18394.000,0.200,2733.000,0.300,1135.000,0.500,1080.000,1.000,383.000,5.000,0
"04/01/08","10:02:48",58759.000,"cc",28323.207,6.00,6,0.100,49265.000,0.200,6051.000,0.300,1601.000,0.500,1308.000,1.000,534.000,5.000,0
"04/01/08","10:02:54",60009.000,"cc",28193.324,6.00,6,0.100,50481.000,0.200,6179.000,0.300,1640.000,0.500,1237.000,1.000,472.000,5.000,0
"04/01/08","10:03:00",60423.000,"cc",28305.381,6.00,6,0.100,51701.000,0.200,5942.000,0.300,1283.000,0.500,1112.000,1.000,385.000,5.000,0
"04/01/08","10:03:06",37508.000,"cc",28350.856,6.00,6,0.100,31617.000,0.200,3694.000,0.300,961.000,0.500,880.000,1.000,356.000,5.000,0
"04/01/08","10:03:12",11779.000,"cc",28281.869,6.00,6,0.100,8551.000,0.200,1408.000,0.300,766.000,0.500,774.000,1.000,280.000,5.000,0
"04/01/08","10:03:18",56386.000,"cc",28291.539,6.00,6,0.100,47785.000,0.200,5647.000,0.300,1380.000,0.500,1167.000,1.000,407.000,5.000,0
"04/01/08","10:03:24",36385.000,"cc",28354.410,6.00,6,0.100,30244.000,0.200,3708.000,0.300,1108.000,0.500,972.000,1.000,353.000,5.000,0
"04/01/08","10:03:30",20866.000,"cc",28387.781,6.00,6,0.100,16417.000,0.200,2264.000,0.300,913.000,0.500,941.000,1.000,331.000,5.000,0
"04/01/08","10:03:36",54499.000,"cc",28343.893,6.00,6,0.100,46571.000,0.200,5389.000,0.300,1189.000,0.500,1014.000,1.000,336.000,5.000,0
"04/01/08","10:03:42",46540.000,"cc",28241.113,6.00,6,0.100,38792.000,0.200,4809.000,0.300,1367.000,0.500,1154.000,1.000,418.000,5.000,0
"04/01/08","10:03:48",36507.000,"cc",28341.258,6.00,6,0.100,29912.000,0.200,3852.000,0.300,1297.000,0.500,1085.000,1.000,361.000,5.000,0
"04/01/08","10:03:54",50263.000,"cc",28309.275,6.00,6,0.100,42341.000,0.200,5126.000,0.300,1288.000,0.500,1087.000,1.000,421.000,5.000,0
"04/01/08","10:04:00",76178.000,"cc",28306.631,6.00,6,0.100,64380.000,0.200,7730.000,0.300,1846.000,0.500,1614.000,1.000,608.000,5.000,0
"04/01/08","10:04:06",46328.000,"cc",28297.262,6.00,6,0.100,37713.000,0.200,5061.000,0.300,1570.000,0.500,1431.000,1.000,553.000,5.000,0
"04/01/08","10:04:12",44815.000,"cc",28300.795,6.00,6,0.100,36696.000,0.200,4836.000,0.300,1430.000,0.500,1355.000,1.000,498.000,5.000,0
"04/01/08","10:04:18",60059.000,"cc",28315.996,6.00,6,0.100,49496.000,0.200,6472.000,0.300,1882.000,0.500,1612.000,1.000,597.000,5.000,0
"04/01/08","10:04:24",51695.000,"cc",28295.621,6.00,6,0.100,42400.000,0.200,5602.000,0.300,1677.000,0.500,1502.000,1.000,514.000,5.000,0
"04/01/08","10:04:30",31327.000,"cc",28287.969,6.00,6,0.100,24783.000,0.200,3469.000,0.300,1360.000,0.500,1238.000,1.000,477.000,5.000,0
"04/01/08","10:04:36",39171.000,"cc",28374.695,6.00,6,0.100,31496.000,0.200,4328.000,0.300,1493.000,0.500,1349.000,1.000,505.000,5.000,0
"04/01/08","10:04:42",22465.000,"cc",28346.949,6.00,6,0.100,17331.000,0.200,2630.000,0.300,1066.000,0.500,1061.000,1.000,377.000,5.000,0
"04/01/08","10:04:48",41650.000,"cc",28318.455,6.00,6,0.100,33874.000,0.200,4693.000,0.300,1383.000,0.500,1236.000,1.000,464.000,5.000,0
"04/01/08","10:04:54",35475.000,"cc",28283.678,6.00,6,0.100,28756.000,0.200,3995.000,0.300,1243.000,0.500,1080.000,1.000,401.000,5.000,0
"04/01/08","10:05:00",34447.000,"cc",28233.359,6.00,6,0.100,28113.000,0.200,3739.000,0.300,1168.000,0.500,1028.000,1.000,399.000,5.000,0
"04/01/08","10:05:06",51439.000,"cc",28321.932,6.00,6,0.100,42569.000,0.200,5722.000,0.300,1431.000,0.500,1243.000,1.000,474.000,5.000,0
"04/01/08","10:05:12",17213.000,"cc",28378.262,6.00,6,0.100,13150.000,0.200,1997.000,0.300,886.000,0.500,888.000,1.000,292.000,5.000,0
"04/01/08","10:05:18",10482.000,"cc",28257.764,6.00,6,0.100,7279.000,0.200,1336.000,0.300,790.000,0.500,789.000,1.000,288.000,5.000,0
"04/01/08","10:05:24",12444.000,"cc",28338.736,6.00,6,0.100,8953.000,0.200,1508.000,0.300,819.000,0.500,859.000,1.000,305.000,5.000,0
"04/01/08","10:05:30",9926.000,"cc",28313.826,6.00,6,0.100,6805.000,0.200,1277.000,0.300,765.000,0.500,802.000,1.000,277.000,5.000,0
"04/01/08","10:05:36",13687.000,"cc",28288.754,6.00,6,0.100,9652.000,0.200,1743.000,0.300,992.000,0.500,972.000,1.000,328.000,5.000,0
"04/01/08","10:05:42",21439.000,"cc",28358.111,6.00,6,0.100,15946.000,0.200,2678.000,0.300,1213.000,0.500,1186.000,1.000,416.000,5.000,0
"04/01/08","10:05:48",17268.000,"cc",28363.533,6.00,6,0.100,12266.000,0.200,2265.000,0.300,1210.000,0.500,1144.000,1.000,383.000,5.000,0
"04/01/08","10:05:54",17215.000,"cc",28287.654,6.00,6,0.100,12374.000,0.200,2183.000,0.300,1154.000,0.500,1116.000,1.000,388.000,5.000,0
"04/01/08","10:06:00",25599.000,"cc",28333.121,6.00,6,0.100,18979.000,0.200,3304.000,0.300,1502.000,0.500,1338.000,1.000,476.000,5.000,0
"04/01/08","10:06:06",17614.000,"cc",28332.656,6.00,6,0.100,11923.000,0.200,2455.000,0.300,1400.000,0.500,1353.000,1.000,483.000,5.000,0
"04/01/08","10:06:12",14306.000,"cc",28281.941,6.00,6,0.100,9856.000,0.200,1957.000,0.300,1013.000,0.500,1092.000,1.000,388.000,5.000,0
"04/01/08","10:06:18",16739.000,"cc",28379.606,6.00,6,0.100,11627.000,0.200,2238.000,0.300,1163.000,0.500,1254.000,1.000,457.000,5.000,0
"04/01/08","10:06:24",17302.000,"cc",28295.693,6.00,6,0.100,12250.000,0.200,2309.000,0.300,1236.000,0.500,1079.000,1.000,428.000,5.000,0
"04/01/08","10:06:30",13238.000,"cc",28270.066,6.00,6,0.100,9017.000,0.200,1843.000,0.300,1007.000,0.500,974.000,1.000,397.000,5.000,0
"04/01/08","10:06:36",28870.000,"cc",28322.393,6.00,6,0.100,21853.000,0.200,3542.000,0.300,1541.000,0.500,1436.000,1.000,498.000,5.000,0
"04/01/08","10:06:42",27515.000,"cc",28330.799,6.00,6,0.100,20477.000,0.200,3433.000,0.300,1563.000,0.500,1508.000,1.000,534.000,5.000,0
"04/01/08","10:06:48",17828.000,"cc",28305.707,6.00,6,0.100,12137.000,0.200,2418.000,0.300,1441.000,0.500,1323.000,1.000,509.000,5.000,0
"04/01/08","10:06:54",21146.000,"cc",28334.984,6.00,6,0.100,14821.000,0.200,2852.000,0.300,1542.000,0.500,1414.000,1.000,517.000,5.000,0
"04/01/08","10:07:00",23709.000,"cc",28315.867,6.00,6,0.100,17356.000,0.200,3034.000,0.300,1456.000,0.500,1350.000,1.000,513.000,5.000,0
"04/01/08","10:07:06",12347.000,"cc",28359.906,6.00,6,0.100,8142.000,0.200,1690.000,0.300,1025.000,0.500,1072.000,1.000,418.000,5.000,0
"04/01/08","10:07:12",34177.000,"cc",28269.229,6.00,6,0.100,25599.000,0.200,4304.000,0.300,1896.000,0.500,1742.000,1.000,636.000,5.000,0
"04/01/08","10:07:18",45565.000,"cc",28358.520,6.00,6,0.100,35283.000,0.200,5477.000,0.300,2130.000,0.500,1967.000,1.000,708.000,5.000,0
"04/01/08","10:07:24",56830.000,"cc",28272.994,6.00,6,0.100,45759.000,0.200,6366.000,0.300,2109.000,0.500,1897.000,1.000,699.000,5.000,0
"04/01/08","10:07:30",83195.000,"cc",28308.316,6.00,6,0.100,70644.000,0.200,8695.000,0.300,1797.000,0.500,1517.000,1.000,542.000,5.000,0
"04/01/08","10:07:36",109341.000,"cc",28324.373,6.00,6,0.100,94192.000,0.200,11320.000,0.300,1877.000,0.500,1441.000,1.000,511.000,5.000,0
"04/01/08","10:07:42",87001.000,"cc",28309.727,6.00,6,0.100,74494.000,0.200,8937.000,0.300,1691.000,0.500,1374.000,1.000,505.000,5.000,0
"04/01/08","10:07:48",69030.000,"cc",28354.910,6.00,6,0.100,57519.000,0.200,7402.000,0.300,1925.000,0.500,1623.000,1.000,561.000,5.000,0
"04/01/08","10:07:54",64326.000,"cc",28331.943,6.00,6,0.100,53812.000,0.200,6739.000,0.300,1811.000,0.500,1438.000,1.000,526.000,5.000,0
"04/01/08","10:08:00",55642.000,"cc",28360.830,6.00,6,0.100,46567.000,0.200,5876.000,0.300,1519.000,0.500,1239.000,1.000,441.000,5.000,0
"04/01/08","10:08:06",76643.000,"cc",28248.180,6.00,6,0.100,64891.000,0.200,8002.000,0.300,1701.000,0.500,1508.000,1.000,541.000,5.000,0
"04/01/08","10:08:12",27977.000,"cc",28335.543,6.00,6,0.100,22472.000,0.200,3041.000,0.300,1059.000,0.500,1042.000,1.000,363.000,5.000,0
"04/01/08","10:08:18",53524.000,"cc",28322.191,6.00,6,0.100,44404.000,0.200,5794.000,0.300,1488.000,0.500,1333.000,1.000,505.000,5.000,0
"04/01/08","10:08:24",74376.000,"cc",28265.057,6.00,6,0.100,62741.000,0.200,7881.000,0.300,1724.000,0.500,1482.000,1.000,547.000,5.000,1.000
"04/01/08","10:08:30",49320.000,"cc",28326.514,6.00,6,0.100,41104.000,0.200,5210.000,0.300,1303.000,0.500,1272.000,1.000,431.000,5.000,0
"04/01/08","10:08:36",31063.000,"cc",28289.754,6.00,6,0.100,25107.000,0.200,3328.000,0.300,1185.000,0.500,1049.000,1.000,394.000,5.000,0
"04/01/08","10:08:42",24025.000,"cc",28330.531,6.00,6,0.100,18764.000,0.200,2717.000,0.300,1110.000,0.500,1047.000,1.000,387.000,5.000,0
"04/01/08","10:08:48",29359.000,"cc",28276.910,6.00,6,0.100,23503.000,0.200,3192.000,0.300,1157.000,0.500,1095.000,1.000,412.000,5.000,0
"04/01/08","10:08:54",29924.000,"cc",28347.750,6.00,6,0.100,23483.000,0.200,3429.000,0.300,1304.000,0.500,1229.000,1.000,479.000,5.000,0
"04/01/08","10:09:00",29550.000,"cc",28323.836,6.00,6,0.100,23437.000,0.200,3327.000,0.300,1202.000,0.500,1161.000,1.000,423.000,5.000,0
"04/01/08","10:09:06",30762.000,"cc",28355.387,6.00,6,0.100,24448.000,0.200,3440.000,0.300,1299.000,0.500,1183.000,1.000,392.000,5.000,0
"04/01/08","10:09:12",22576.000,"cc",28348.998,6.00,6,0.100,17465.000,0.200,2554.000,0.300,1125.000,0.500,1027.000,1.000,405.000,5.000,0
"04/01/08","10:09:18",15449.000,"cc",28272.582,6.00,6,0.100,11539.000,0.200,1863.000,0.300,829.000,0.500,900.000,1.000,318.000,5.000,0
"04/01/08","10:09:24",7539.000,"cc",28314.625,6.00,6,0.100,4876.000,0.200,985.000,0.300,702.000,0.500,713.000,1.000,263.000,5.000,0
"04/01/08","10:09:30",10944.000,"cc",28292.129,6.00,6,0.100,7640.000,0.200,1329.000,0.300,813.000,0.500,833.000,1.000,329.000,5.000,0
"04/01/08","10:09:36",11812.000,"cc",28342.469,6.00,6,0.100,7856.000,0.200,1607.000,0.300,990.000,0.500,989.000,1.000,370.000,5.000,0
"04/01/08","10:09:42",11349.000,"cc",28352.106,6.00,6,0.100,7687.000,0.200,1514.000,0.300,920.000,0.500,917.000,1.000,311.000,5.000,0
"04/01/08","10:09:48",9377.000,"cc",28308.885,6.00,6,0.100,5523.000,0.200,1442.000,0.300,1054.000,0.500,999.000,1.000,359.000,5.000,0
"04/01/08","10:09:54",8673.000,"cc",28251.744,6.00,6,0.100,5405.000,0.200,1222.000,0.300,836.000,0.500,903.000,1.000,307.000,5.000,0
"04/01/08","10:10:00",8472.000,"cc",28306.475,6.00,6,0.100,5165.000,0.200,1243.000,0.300,895.000,0.500,877.000,1.000,292.000,5.000,0
"04/01/08","10:10:06",8153.000,"cc",28336.522,6.00,6,0.100,4889.000,0.200,1165.000,0.300,905.000,0.500,883.000,1.000,311.000,5.000,0
"04/01/08","10:10:12",8355.000,"cc",28354.926,6.00,6,0.100,5009.000,0.200,1252.000,0.300,904.000,0.500,850.000,1.000,340.000,5.000,0
"04/01/08","10:10:18",6513.000,"cc",28220.195,6.00,6,0.100,3923.000,0.200,864.000,0.300,705.000,0.500,766.000,1.000,254.000,5.000,1.000
"04/01/08","10:10:24",7746.000,"cc",28299.092,6.00,6,0.100,4747.000,0.200,1156.000,0.300,779.000,0.500,800.000,1.000,264.000,5.000,0
"04/01/08","10:10:30",6918.000,"cc",28308.945,6.00,6,0.100,4186.000,0.200,1002.000,0.300,680.000,0.500,756.000,1.000,294.000,5.000,0
"04/01/08","10:10:36",7721.000,"cc",28336.395,6.00,6,0.100,4565.000,0.200,1159.000,0.300,832.000,0.500,880.000,1.000,284.000,5.000,1.000
"04/01/08","10:10:42",12029.000,"cc",28295.830,6.00,6,0.100,7942.000,0.200,1624.000,0.300,1025.000,0.500,1035.000,1.000,403.000,5.000,0
"04/01/08","10:10:48",13159.000,"cc",28256.410,6.00,6,0.100,8654.000,0.200,1681.000,0.300,1171.000,0.500,1225.000,1.000,428.000,5.000,0
"04/01/08","10:10:54",12415.000,"cc",28343.398,6.00,6,0.100,7747.000,0.200,1870.000,0.300,1185.000,0.500,1167.000,1.000,446.000,5.000,0
"04/01/08","10:11:00",12907.000,"cc",28322.000,6.00,6,0.100,8657.000,0.200,1767.000,0.300,1079.000,0.500,1067.000,1.000,337.000,5.000,0
"04/01/08","10:11:06",16509.000,"cc",28298.141,6.00,6,0.100,12136.000,0.200,2012.000,0.300,1016.000,0.500,979.000,1.000,366.000,5.000,0
"04/01/08","10:11:12",47523.000,"cc",28390.076,6.00,6,0.100,39744.000,0.200,4823.000,0.300,1340.000,0.500,1178.000,1.000,438.000,5.000,0
"04/01/08","10:11:18",33722.000,"cc",28262.773,6.00,6,0.100,27412.000,0.200,3581.000,0.300,1162.000,0.500,1154.000,1.000,413.000,5.000,0
"04/01/08","10:11:24",24224.000,"cc",28274.916,6.00,6,0.100,17824.000,0.200,3004.000,0.300,1422.000,0.500,1408.000,1.000,566.000,5.000,0
"04/01/08","10:11:30",31870.000,"cc",28314.545,6.00,6,0.100,24874.000,0.200,3340.000,0.300,1523.000,0.500,1502.000,1.000,631.000,5.000,0
"04/01/08","10:11:36",23649.000,"cc",28339.723,6.00,6,0.100,16899.000,0.200,3015.000,0.300,1651.000,0.500,1485.000,1.000,599.000,5.000,0
"04/01/08","10:11:42",22019.000,"cc",28330.088,6.00,6,0.100,13935.000,0.200,3259.000,0.300,1982.000,0.500,2049.000,1.000,794.000,5.000,0
"04/01/08","10:11:48",18781.000,"cc",28285.191,6.00,6,0.100,12130.000,0.200,2608.000,0.300,1589.000,0.500,1812.000,1.000,642.000,5.000,0
"04/01/08","10:11:54",17796.000,"cc",28325.824,6.00,6,0.100,11211.000,0.200,2599.000,0.300,1584.000,0.500,1743.000,1.000,659.000,5.000,0
"04/01/08","10:12:00",16188.000,"cc",28378.963,6.00,6,0.100,9959.000,0.200,2319.000,0.300,1638.000,0.500,1623.000,1.000,649.000,5.000,0
"04/01/08","10:12:06",14753.000,"cc",28336.440,6.00,6,0.100,8671.000,0.200,2373.000,0.300,1613.000,0.500,1512.000,1.000,584.000,5.000,0
"04/01/08","10:12:12",14324.000,"cc",28299.090,6.00,6,0.100,8662.000,0.200,2098.000,0.300,1418.000,0.500,1567.000,1.000,579.000,5.000,0
"04/01/08","10:12:18",10187.000,"cc",28325.869,6.00,6,0.100,6261.000,0.200,1440.000,0.300,1001.000,0.500,1059.000,1.000,426.000,5.000,0
"04/01/08","10:12:24",10597.000,"cc",28353.084,6.00,6,0.100,5984.000,0.200,1638.000,0.300,1260.000,0.500,1231.000,1.000,484.000,5.000,0
"04/01/08","10:12:30",9655.000,"cc",28278.844,6.00,6,0.100,5711.000,0.200,1419.000,0.300,1028.000,0.500,1079.000,1.000,418.000,5.000,0
"04/01/08","10:12:36",10822.000,"cc",28318.842,6.00,6,0.100,7118.000,0.200,1418.000,0.300,918.000,0.500,993.000,1.000,375.000,5.000,0
"04/01/08","10:12:42",9215.000,"cc",28365.711,6.00,6,0.100,6046.000,0.200,1215.000,0.300,768.000,0.500,867.000,1.000,319.000,5.000,0
"04/01/08","10:12:48",8245.000,"cc",28289.020,6.00,6,0.100,5213.000,0.200,1112.000,0.300,792.000,0.500,802.000,1.000,326.000,5.000,0
"04/01/08","10:12:54",7834.000,"cc",28350.758,6.00,6,0.100,4792.000,0.200,1031.000,0.300,823.000,0.500,855.000,1.000,333.000,5.000,0
"04/01/08","10:13:00",7261.000,"cc",28262.223,6.00,6,0.100,4346.000,0.200,971.000,0.300,802.000,0.500,823.000,1.000,319.000,5.000,0
"04/01/08","10:13:06",6802.000,"cc",28266.016,6.00,6,0.100,4140.000,0.200,969.000,0.300,718.000,0.500,709.000,1.000,266.000,5.000,0
"04/01/08","10:13:12",6132.000,"cc",28331.609,6.00,6,0.100,3684.000,0.200,875.000,0.300,647.000,0.500,715.000,1.000,210.000,5.000,1.000
"04/01/08","10:13:18",6664.000,"cc",28313.604,6.00,6,0.100,4151.000,0.200,911.000,0.300,676.000,0.500,680.000,1.000,246.000,5.000,0
"04/01/08","10:13:24",6128.000,"cc",28315.152,6.00,6,0.100,3778.000,0.200,844.000,0.300,614.000,0.500,684.000,1.000,208.000,5.000,0
"04/01/08","10:13:30",6396.000,"cc",28325.191,6.00,6,0.100,4039.000,0.200,810.000,0.300,601.000,0.500,694.000,1.000,252.000,5.000,0
"04/01/08","10:13:36",6270.000,"cc",28350.926,6.00,6,0.100,3733.000,0.200,862.000,0.300,659.000,0.500,765.000,1.000,251.000,5.000,0
"04/01/08","10:13:42",6255.000,"cc",28326.900,6.00,6,0.100,4011.000,0.200,793.000,0.300,591.000,0.500,628.000,1.000,232.000,5.000,0
"04/01/08","10:13:48",6697.000,"cc",28289.451,6.00,6,0.100,4392.000,0.200,856.000,0.300,607.000,0.500,633.000,1.000,209.000,5.000,0
"04/01/08","10:13:54",7286.000,"cc",28306.893,6.00,6,0.100,4944.000,0.200,890.000,0.300,600.000,0.500,657.000,1.000,195.000,5.000,0
"04/01/08","10:14:00",5840.000,"cc",28360.775,6.00,6,0.100,3577.000,0.200,757.000,0.300,614.000,0.500,645.000,1.000,247.000,5.000,0
"04/01/08","10:14:06",6417.000,"cc",28312.324,6.00,6,0.100,3840.000,0.200,885.000,0.300,665.000,0.500,724.000,1.000,303.000,5.000,0
"04/01/08","10:14:12",6032.000,"cc",28290.172,6.00,6,0.100,3757.000,0.200,773.000,0.300,620.000,0.500,658.000,1.000,224.000,5.000,0
"04/01/08","10:14:18",5905.000,"cc",28277.977,6.00,6,0.100,3536.000,0.200,807.000,0.300,606.000,0.500,712.000,1.000,244.000,5.000,0
"04/01/08","10:14:24",6077.000,"cc",28343.932,6.00,6,0.100,3619.000,0.200,842.000,0.300,700.000,0.500,687.000,1.000,229.000,5.000,0
"04/01/08","10:14:30",5904.000,"cc",28366.012,6.00,6,0.100,3628.000,0.200,750.000,0.300,586.000,0.500,674.000,1.000,266.000,5.000,0
"04/01/08","10:14:36",5865.000,"cc",28400.590,6.00,6,0.100,3639.000,0.200,775.000,0.300,585.000,0.500,630.000,1.000,236.000,5.000,0
"04/01/08","10:14:42",5748.000,"cc",28270.563,6.00,6,0.100,3555.000,0.200,714.000,0.300,603.000,0.500,628.000,1.000,248.000,5.000,0
"04/01/08","10:14:48",5783.000,"cc",28326.404,6.00,6,0.100,3577.000,0.200,727.000,0.300,583.000,0.500,671.000,1.000,225.000,5.000,0
"04/01/08","10:14:54",6056.000,"cc",28245.867,6.00,6,0.100,3766.000,0.200,801.000,0.300,581.000,0.500,685.000,1.000,223.000,5.000,0
"04/01/08","10:15:00",6204.000,"cc",28283.129,6.00,6,0.100,3739.000,0.200,837.000,0.300,624.000,0.500,729.000,1.000,275.000,5.000,0
"04/01/08","10:15:06",6173.000,"cc",28285.936,6.00,6,0.100,3703.000,0.200,883.000,0.300,674.000,0.500,662.000,1.000,251.000,5.000,0
"04/01/08","10:15:12",7123.000,"cc",28305.039,6.00,6,0.100,4492.000,0.200,910.000,0.300,669.000,0.500,790.000,1.000,262.000,5.000,0
"04/01/08","10:15:18",6219.000,"cc",28332.441,6.00,6,0.100,3678.000,0.200,890.000,0.300,654.000,0.500,742.000,1.000,255.000,5.000,0
"04/01/08","10:15:24",6127.000,"cc",28326.557,6.00,6,0.100,3761.000,0.200,819.000,0.300,605.000,0.500,710.000,1.000,232.000,5.000,0
"04/01/08","10:15:30",6251.000,"cc",28348.389,6.00,6,0.100,3865.000,0.200,793.000,0.300,655.000,0.500,709.000,1.000,229.000,5.000,0
"04/01/08","10:15:36",5972.000,"cc",28341.432,6.00,6,0.100,3608.000,0.200,823.000,0.300,612.000,0.500,691.000,1.000,238.000,5.000,0
"04/01/08","10:15:42",6273.000,"cc",28322.057,6.00,6,0.100,3811.000,0.200,859.000,0.300,659.000,0.500,676.000,1.000,268.000,5.000,0
"04/01/08","10:15:48",6121.000,"cc",28298.229,6.00,6,0.100,3640.000,0.200,834.000,0.300,648.000,0.500,745.000,1.000,254.000,5.000,0
"04/01/08","10:15:54",5989.000,"cc",28312.148,6.00,6,0.100,3661.000,0.200,768.000,0.300,672.000,0.500,637.000,1.000,251.000,5.000,0
"04/01/08","10:16:00",5908.000,"cc",28322.451,6.00,6,0.100,3591.000,0.200,778.000,0.300,617.000,0.500,691.000,1.000,231.000,5.000,0
"04/01/08","10:16:06",5972.000,"cc",28329.199,6.00,6,0.100,3593.000,0.200,811.000,0.300,614.000,0.500,703.000,1.000,251.000,5.000,0
"04/01/08","10:16:12",6381.000,"cc",28256.029,6.00,6,0.100,3997.000,0.200,853.000,0.300,618.000,0.500,683.000,1.000,230.000,5.000,0
"04/01/08","10:16:18",6268.000,"cc",28294.188,6.00,6,0.100,3888.000,0.200,816.000,0.300,658.000,0.500,661.000,1.000,245.000,5.000,0
"04/01/08","10:16:24",5842.000,"cc",28342.225,6.00,6,0.100,3630.000,0.200,765.000,0.300,607.000,0.500,621.000,1.000,219.000,5.000,0
"04/01/08","10:16:30",6164.000,"cc",28332.215,6.00,6,0.100,3933.000,0.200,798.000,0.300,563.000,0.500,650.000,1.000,220.000,5.000,0
"04/01/08","10:16:36",6328.000,"cc",28284.375,6.00,6,0.100,3853.000,0.200,848.000,0.300,664.000,0.500,704.000,1.000,259.000,5.000,0